RYR28ZG EGCC-GCFV

Flight info

Callsign RYR28ZG
Flight time N/A
Altitude 23000
Route KUXEM P17 BEPHE/N0459F340 DCT OSSEP DCT ELNIF DCT ZESPE DCT KLAKI DCT ANNET/N0464F330 DCT EKVEB/N0462F350 DCT KORUL DCT ASPOR DCT FTM DCT DEKKI DCT TROIA DCT TAKAV DCT VEDOD UN857 TERTO
Aircraft B738/M-SDE2E3FGHIRWXY/LB1

Departure

Time 2026-05-08 08:39
Airport Manchester Airport (EGCC)

Arrival

Time N/A
Airport Fuerteventura Airport (GCFV)
Time Latitude Longitude Altitude Speed Heading
2026-05-08 08:17 53.36009 -2.26927 254 ft 0 kts 314°
2026-05-08 08:18 53.36010 -2.26927 254 ft 0 kts 313°
2026-05-08 08:28 53.35998 -2.26906 254 ft 4 kts 314°
2026-05-08 08:29 53.35983 -2.26879 254 ft 4 kts 294°
2026-05-08 08:29 53.35981 -2.26842 254 ft 4 kts 238°
2026-05-08 08:29 53.35998 -2.26807 254 ft 4 kts 231°
2026-05-08 08:29 53.35990 -2.26831 254 ft 4 kts 243°
2026-05-08 08:30 53.35974 -2.26854 254 ft 4 kts 192°
2026-05-08 08:30 53.35959 -2.26849 254 ft 0 kts 163°
2026-05-08 08:32 53.35959 -2.26848 254 ft 0 kts 163°
2026-05-08 08:32 53.35950 -2.26842 254 ft 3 kts 157°
2026-05-08 08:33 53.35916 -2.26831 255 ft 4 kts 190°
2026-05-08 08:33 53.35883 -2.26875 255 ft 8 kts 231°
2026-05-08 08:33 53.35840 -2.26969 255 ft 12 kts 236°
2026-05-08 08:33 53.35790 -2.27105 254 ft 16 kts 230°
2026-05-08 08:34 53.35711 -2.27197 254 ft 9 kts 162°
2026-05-08 08:34 53.35703 -2.27190 254 ft 0 kts 149°
2026-05-08 08:34 53.35693 -2.27178 254 ft 4 kts 144°
2026-05-08 08:34 53.35657 -2.27131 256 ft 9 kts 141°
2026-05-08 08:35 53.35600 -2.27053 256 ft 13 kts 141°
2026-05-08 08:35 53.35511 -2.26934 254 ft 17 kts 141°
2026-05-08 08:35 53.35410 -2.26956 248 ft 20 kts 232°
2026-05-08 08:35 53.35322 -2.27139 242 ft 21 kts 231°
2026-05-08 08:36 53.35185 -2.27239 231 ft 25 kts 191°
2026-05-08 08:36 53.35038 -2.27289 225 ft 13 kts 193°
2026-05-08 08:36 53.34998 -2.27344 224 ft 0 kts 231°
2026-05-08 08:38 53.34989 -2.27362 226 ft 15 kts 231°
2026-05-08 08:38 53.34763 -2.27830 222 ft 87 kts 231°
2026-05-08 08:38 53.34253 -2.28885 226 ft 147 kts 231°
2026-05-08 08:38 53.33512 -2.30389 460 ft 180 kts 229°
2026-05-08 08:39 53.32703 -2.32098 1139 ft 193 kts 230°
2026-05-08 08:39 53.31922 -2.33952 1922 ft 200 kts 245°
2026-05-08 08:39 53.31714 -2.36323 2323 ft 219 kts 276°
2026-05-08 08:39 53.32059 -2.38839 2857 ft 226 kts 281°
2026-05-08 08:40 53.32435 -2.41516 3085 ft 248 kts 279°
2026-05-08 08:40 53.32441 -2.44429 3570 ft 256 kts 252°
2026-05-08 08:40 53.31908 -2.47264 4424 ft 256 kts 250°
2026-05-08 08:40 53.31376 -2.50079 5247 ft 259 kts 250°
2026-05-08 08:41 53.30838 -2.52968 6028 ft 262 kts 251°
2026-05-08 08:41 53.30294 -2.55907 6812 ft 266 kts 251°
2026-05-08 08:41 53.29743 -2.58860 7607 ft 266 kts 249°
2026-05-08 08:41 53.29015 -2.61712 8376 ft 268 kts 243°
2026-05-08 08:42 53.28115 -2.64438 9145 ft 269 kts 229°
2026-05-08 08:42 53.26702 -2.66470 9914 ft 270 kts 215°
2026-05-08 08:42 53.25136 -2.68274 10496 ft 279 kts 214°
2026-05-08 08:42 53.23467 -2.70172 10680 ft 302 kts 214°
2026-05-08 08:43 53.21671 -2.72224 10844 ft 324 kts 214°
2026-05-08 08:43 53.19756 -2.74421 11009 ft 344 kts 214°
2026-05-08 08:43 53.17758 -2.76721 11157 ft 363 kts 214°
2026-05-08 08:43 53.15637 -2.79166 11444 ft 376 kts 214°
2026-05-08 08:44 53.13463 -2.81671 11982 ft 382 kts 214°
2026-05-08 08:44 53.11270 -2.84196 12616 ft 385 kts 214°
2026-05-08 08:44 53.08949 -2.86456 13193 ft 390 kts 202°
2026-05-08 08:44 53.06309 -2.87522 13786 ft 394 kts 186°
2026-05-08 08:45 53.03561 -2.87384 14330 ft 398 kts 172°
2026-05-08 08:45 53.00821 -2.86609 14884 ft 401 kts 171°
2026-05-08 08:45 52.98070 -2.85798 15431 ft 404 kts 171°
2026-05-08 08:45 52.95327 -2.85005 16007 ft 405 kts 172°
2026-05-08 08:46 52.92547 -2.84226 16546 ft 408 kts 172°
2026-05-08 08:46 52.89733 -2.83458 17025 ft 412 kts 172°
2026-05-08 08:46 52.86893 -2.82695 17509 ft 415 kts 172°
2026-05-08 08:46 52.84031 -2.81930 18017 ft 418 kts 173°
2026-05-08 08:47 52.81153 -2.81163 18484 ft 421 kts 173°
2026-05-08 08:47 52.78246 -2.80382 18904 ft 424 kts 172°
2026-05-08 08:47 52.75326 -2.79578 19335 ft 427 kts 172°
2026-05-08 08:47 52.72386 -2.78767 19752 ft 429 kts 172°
2026-05-08 08:48 52.69434 -2.77959 20150 ft 432 kts 172°
2026-05-08 08:48 52.66493 -2.77181 20538 ft 435 kts 173°
2026-05-08 08:48 52.63493 -2.76398 20925 ft 438 kts 173°
2026-05-08 08:48 52.60464 -2.75793 21290 ft 439 kts 179°
2026-05-08 08:49 52.57405 -2.75947 21664 ft 440 kts 186°
2026-05-08 08:49 52.54346 -2.76359 22056 ft 443 kts 185°
2026-05-08 08:49 52.51266 -2.76688 22401 ft 446 kts 185°
2026-05-08 08:49 52.48157 -2.76965 22722 ft 449 kts 184°
2026-05-08 08:50 52.45019 -2.77231 22972 ft 454 kts 184°
2026-05-08 08:50 52.41857 -2.77496 23315 ft 456 kts 184°
2026-05-08 08:50 52.38729 -2.77759 23668 ft 458 kts 184°
2026-05-08 08:50 52.35540 -2.78030 23939 ft 460 kts 184°
2026-05-08 08:51 52.32338 -2.78304 24199 ft 462 kts 184°
2026-05-08 08:51 52.29116 -2.78581 24458 ft 465 kts 184°
2026-05-08 08:51 52.25877 -2.78859 24712 ft 467 kts 184°
2026-05-08 08:51 52.22624 -2.79139 24884 ft 471 kts 184°
2026-05-08 08:52 52.19333 -2.79421 25071 ft 474 kts 185°
2026-05-08 08:52 52.16037 -2.79703 25343 ft 476 kts 185°
2026-05-08 08:52 52.12723 -2.79985 25663 ft 476 kts 185°
2026-05-08 08:52 52.09425 -2.80266 26014 ft 475 kts 185°
2026-05-08 08:53 52.06168 -2.80542 26355 ft 475 kts 185°
2026-05-08 08:53 52.02867 -2.80824 26681 ft 475 kts 185°
2026-05-08 08:53 51.99563 -2.81106 26970 ft 476 kts 185°
2026-05-08 08:53 51.96245 -2.81389 27206 ft 479 kts 185°
2026-05-08 08:54 51.92916 -2.81672 27537 ft 479 kts 185°
2026-05-08 08:54 51.89595 -2.81953 27946 ft 478 kts 186°
2026-05-08 08:54 51.86278 -2.82234 28334 ft 477 kts 186°
2026-05-08 08:54 51.82979 -2.82661 28648 ft 476 kts 189°
2026-05-08 08:55 51.79736 -2.83321 28966 ft 475 kts 191°
2026-05-08 08:55 51.76463 -2.84083 29302 ft 475 kts 192°
2026-05-08 08:55 51.73185 -2.84855 29546 ft 477 kts 192°
2026-05-08 08:55 51.69893 -2.85604 29843 ft 478 kts 191°
2026-05-08 08:56 51.66600 -2.86321 30219 ft 477 kts 191°
2026-05-08 08:56 51.63317 -2.87016 30537 ft 476 kts 191°
2026-05-08 08:56 51.60040 -2.87703 30824 ft 475 kts 191°
2026-05-08 08:56 51.56801 -2.88383 31078 ft 475 kts 192°
2026-05-08 08:57 51.53537 -2.89070 31402 ft 472 kts 192°
2026-05-08 08:57 51.50299 -2.89752 31918 ft 466 kts 192°
2026-05-08 08:57 51.47096 -2.90429 32261 ft 464 kts 192°
2026-05-08 08:57 51.43897 -2.91109 32429 ft 465 kts 192°
2026-05-08 08:58 51.40683 -2.91792 32645 ft 466 kts 192°
2026-05-08 08:58 51.37466 -2.92474 32906 ft 466 kts 192°
2026-05-08 08:58 51.34250 -2.93154 33170 ft 466 kts 193°
2026-05-08 08:58 51.31037 -2.93830 33438 ft 465 kts 193°
2026-05-08 08:59 51.27840 -2.94502 33687 ft 464 kts 193°
2026-05-08 08:59 51.24680 -2.95165 33970 ft 463 kts 193°
2026-05-08 08:59 51.21496 -2.95831 34242 ft 461 kts 193°
2026-05-08 08:59 51.18324 -2.96494 34512 ft 459 kts 193°
2026-05-08 09:00 51.15167 -2.97210 34755 ft 455 kts 197°
2026-05-08 09:00 51.12158 -2.98600 34930 ft 447 kts 208°
2026-05-08 09:00 51.06492 -3.02685 35013 ft 450 kts 210°
2026-05-08 09:01 51.00771 -3.06858 35024 ft 455 kts 209°
2026-05-08 09:01 50.95030 -3.10966 35027 ft 457 kts 209°
2026-05-08 09:02 50.89207 -3.15081 35021 ft 459 kts 209°
2026-05-08 09:02 50.83372 -3.19184 35006 ft 459 kts 209°
2026-05-08 09:03 50.77544 -3.23272 35021 ft 458 kts 209°
2026-05-08 09:03 50.71766 -3.27317 35020 ft 457 kts 208°
2026-05-08 09:04 50.65986 -3.31349 35012 ft 450 kts 208°
2026-05-08 09:04 50.60283 -3.35319 35021 ft 447 kts 208°
2026-05-08 09:05 50.54593 -3.39274 35018 ft 447 kts 208°
2026-05-08 09:05 50.48912 -3.43211 35020 ft 447 kts 208°
2026-05-08 09:06 50.43255 -3.47121 35023 ft 448 kts 208°
2026-05-08 09:06 50.37548 -3.51054 35020 ft 448 kts 208°
2026-05-08 09:07 50.31830 -3.54984 35018 ft 449 kts 208°
2026-05-08 09:07 50.26141 -3.58883 35024 ft 449 kts 208°
2026-05-08 09:08 50.20414 -3.62798 35024 ft 450 kts 208°
2026-05-08 09:08 50.14674 -3.66712 35026 ft 450 kts 208°
2026-05-08 09:09 50.08941 -3.70610 35022 ft 449 kts 208°
2026-05-08 09:09 50.03220 -3.74490 35029 ft 448 kts 208°
2026-05-08 09:10 49.98471 -3.77704 35029 ft 447 kts 208°
2026-05-08 09:10 49.91843 -3.82178 35039 ft 447 kts 208°
2026-05-08 09:11 49.86150 -3.86011 35031 ft 446 kts 208°
2026-05-08 09:11 49.81416 -3.89190 35029 ft 446 kts 208°
2026-05-08 09:12 49.75724 -3.93004 35042 ft 446 kts 208°
2026-05-08 09:12 49.70033 -3.96809 35035 ft 446 kts 208°
2026-05-08 09:13 49.63416 -4.01205 35024 ft 445 kts 207°
2026-05-08 09:13 49.58615 -4.04272 35030 ft 446 kts 206°
2026-05-08 09:14 49.52941 -4.07844 35024 ft 445 kts 206°
2026-05-08 09:14 49.47216 -4.11449 35024 ft 444 kts 206°
2026-05-08 09:15 49.41507 -4.15049 35013 ft 444 kts 206°
2026-05-08 09:15 49.35791 -4.18649 35022 ft 443 kts 206°
2026-05-08 09:16 49.30088 -4.22234 35022 ft 443 kts 206°
2026-05-08 09:16 49.24414 -4.25791 35025 ft 444 kts 206°
2026-05-08 09:17 49.18700 -4.29364 35010 ft 444 kts 206°
2026-05-08 09:17 49.12982 -4.32930 35019 ft 444 kts 206°
2026-05-08 09:18 49.07298 -4.36467 35020 ft 444 kts 206°
2026-05-08 09:18 49.01576 -4.40018 35019 ft 445 kts 206°
2026-05-08 09:19 48.95847 -4.43564 35011 ft 444 kts 206°
2026-05-08 09:19 48.90128 -4.47095 35008 ft 443 kts 206°
2026-05-08 09:20 48.84417 -4.50613 35012 ft 443 kts 206°
2026-05-08 09:20 48.78749 -4.54095 35003 ft 442 kts 206°
2026-05-08 09:21 48.73002 -4.57618 34994 ft 442 kts 205°
2026-05-08 09:23 48.53119 -4.69739 34979 ft 442 kts 205°
2026-05-08 09:23 48.47421 -4.73194 34987 ft 441 kts 205°
2026-05-08 09:24 48.41719 -4.76643 34982 ft 442 kts 205°
2026-05-08 09:24 48.36049 -4.80064 34980 ft 442 kts 205°
2026-05-08 09:25 48.30347 -4.83496 34985 ft 442 kts 205°
2026-05-08 09:25 48.24640 -4.86922 34983 ft 442 kts 205°
2026-05-08 09:26 48.18933 -4.90341 34977 ft 442 kts 205°
2026-05-08 09:26 48.13224 -4.93752 34976 ft 442 kts 205°
2026-05-08 09:27 48.07553 -4.97133 34970 ft 441 kts 204°
2026-05-08 09:27 48.01852 -5.00523 34977 ft 441 kts 204°
2026-05-08 09:28 47.96140 -5.03912 34978 ft 442 kts 204°
2026-05-08 09:28 47.90426 -5.07294 34976 ft 442 kts 204°
2026-05-08 09:29 47.84754 -5.10644 34973 ft 441 kts 204°
2026-05-08 09:29 47.79049 -5.14004 34967 ft 441 kts 204°
2026-05-08 09:30 47.73350 -5.17353 34966 ft 440 kts 204°
2026-05-08 09:30 47.67664 -5.20687 34954 ft 440 kts 203°
2026-05-08 09:31 47.61977 -5.24013 34965 ft 439 kts 203°
2026-05-08 09:31 47.56293 -5.27330 34962 ft 439 kts 203°
2026-05-08 09:32 47.50645 -5.30619 34959 ft 439 kts 203°
2026-05-08 09:32 47.44956 -5.33923 34946 ft 439 kts 203°
2026-05-08 09:33 47.39273 -5.37217 34951 ft 439 kts 203°
2026-05-08 09:33 47.33583 -5.40506 34960 ft 439 kts 202°
2026-05-08 09:34 47.27930 -5.43767 34949 ft 439 kts 202°
2026-05-08 09:34 47.22242 -5.47041 34935 ft 439 kts 202°
2026-05-08 09:35 47.16560 -5.50303 34937 ft 438 kts 202°
2026-05-08 09:35 47.10880 -5.53557 34937 ft 438 kts 202°
2026-05-08 09:36 47.05238 -5.56781 34937 ft 438 kts 202°
2026-05-08 09:36 46.99567 -5.60016 34927 ft 438 kts 202°
2026-05-08 09:37 46.93892 -5.63245 34931 ft 437 kts 202°
2026-05-08 09:37 46.88217 -5.66466 34926 ft 437 kts 202°
2026-05-08 09:38 46.82541 -5.69681 34920 ft 437 kts 202°
2026-05-08 09:38 46.76908 -5.72865 34924 ft 437 kts 201°
2026-05-08 09:39 46.71242 -5.76060 34925 ft 436 kts 201°
2026-05-08 09:39 46.65582 -5.79245 34917 ft 436 kts 201°
2026-05-08 09:40 46.59928 -5.82422 34919 ft 435 kts 202°
2026-05-08 09:40 46.54368 -5.85881 34914 ft 435 kts 204°
2026-05-08 09:41 46.48887 -5.89470 34908 ft 435 kts 204°
2026-05-08 09:41 46.43364 -5.93055 34910 ft 435 kts 204°
2026-05-08 09:42 46.37831 -5.96601 34900 ft 434 kts 204°
2026-05-08 09:42 46.32297 -6.00124 34899 ft 434 kts 204°
2026-05-08 09:43 46.26772 -6.03631 34905 ft 434 kts 203°
2026-05-08 09:43 46.21278 -6.07111 34892 ft 434 kts 203°
2026-05-08 09:44 46.15751 -6.10604 34895 ft 433 kts 203°
2026-05-08 09:44 46.10244 -6.14078 34892 ft 433 kts 203°
2026-05-08 09:45 46.04720 -6.17555 34888 ft 433 kts 203°
2026-05-08 09:45 45.99199 -6.21023 34881 ft 433 kts 202°
2026-05-08 09:46 45.93718 -6.24458 34879 ft 433 kts 202°
2026-05-08 09:46 45.88203 -6.27906 34884 ft 433 kts 202°
2026-05-08 09:47 45.82682 -6.31351 34893 ft 433 kts 202°
2026-05-08 09:47 45.77162 -6.34788 34875 ft 432 kts 202°
2026-05-08 09:48 45.71650 -6.38213 34870 ft 431 kts 202°
2026-05-08 09:48 45.66144 -6.41626 34867 ft 431 kts 202°
2026-05-08 09:49 45.60678 -6.45007 34868 ft 431 kts 202°
2026-05-08 09:49 45.55176 -6.48403 34866 ft 431 kts 202°
2026-05-08 09:50 45.49675 -6.51791 34869 ft 431 kts 202°
2026-05-08 09:50 45.44170 -6.55175 34869 ft 431 kts 202°
2026-05-08 09:51 45.38706 -6.58526 34860 ft 431 kts 201°
2026-05-08 09:51 45.33191 -6.61901 34870 ft 432 kts 201°
2026-05-08 09:52 45.27663 -6.65278 34866 ft 433 kts 201°
2026-05-08 09:52 45.22131 -6.68649 34869 ft 433 kts 201°
2026-05-08 09:53 45.16594 -6.72017 34867 ft 433 kts 201°
2026-05-08 09:53 45.11095 -6.75354 34864 ft 433 kts 201°
2026-05-08 09:54 45.05555 -6.78709 34868 ft 433 kts 201°
2026-05-08 09:54 45.00015 -6.82058 34870 ft 433 kts 201°
2026-05-08 09:55 44.94472 -6.85401 34870 ft 433 kts 201°
2026-05-08 09:55 44.88935 -6.88735 34884 ft 433 kts 201°
2026-05-08 09:56 44.83427 -6.92021 34877 ft 432 kts 199°
2026-05-08 09:56 44.77708 -6.94515 34877 ft 430 kts 193°
2026-05-08 09:57 44.69064 -6.97874 34877 ft 429 kts 193°
2026-05-08 09:57 44.63349 -7.00134 34880 ft 429 kts 194°
2026-05-08 09:58 44.57600 -7.02433 34881 ft 430 kts 194°
2026-05-08 09:58 44.51860 -7.04735 34883 ft 429 kts 194°
2026-05-08 09:59 44.46113 -7.07035 34882 ft 429 kts 194°
2026-05-08 09:59 44.40365 -7.09330 34887 ft 429 kts 194°
2026-05-08 10:00 44.34654 -7.11606 34889 ft 430 kts 193°
2026-05-08 10:00 44.28901 -7.13894 34897 ft 430 kts 193°
2026-05-08 10:01 44.23144 -7.16178 34900 ft 430 kts 193°
2026-05-08 10:01 44.17382 -7.18459 34910 ft 430 kts 193°
2026-05-08 10:02 44.11616 -7.20738 34899 ft 431 kts 193°
2026-05-08 10:02 44.05895 -7.22994 34902 ft 431 kts 193°
2026-05-08 10:03 44.00131 -7.25263 34899 ft 430 kts 193°
2026-05-08 10:03 43.94370 -7.27526 34902 ft 430 kts 193°
2026-05-08 10:04 43.88609 -7.29785 34895 ft 430 kts 193°
2026-05-08 10:04 43.82888 -7.32023 34894 ft 430 kts 193°
2026-05-08 10:05 43.77129 -7.34271 34896 ft 430 kts 193°
2026-05-08 10:05 43.71369 -7.36516 34896 ft 430 kts 193°
2026-05-08 10:06 43.65615 -7.38753 34901 ft 430 kts 193°
2026-05-08 10:06 43.59859 -7.40988 34911 ft 429 kts 193°
2026-05-08 10:07 43.54134 -7.43205 34902 ft 431 kts 193°
2026-05-08 10:07 43.48364 -7.45435 34894 ft 430 kts 192°
2026-05-08 10:08 43.42602 -7.47659 34901 ft 430 kts 193°
2026-05-08 10:08 43.36838 -7.49878 34908 ft 430 kts 192°
2026-05-08 10:09 43.31068 -7.52095 34894 ft 430 kts 192°
2026-05-08 10:09 43.25345 -7.54290 34898 ft 430 kts 192°
2026-05-08 10:10 43.19583 -7.56496 34902 ft 430 kts 192°
2026-05-08 10:10 43.13825 -7.58696 34900 ft 429 kts 192°
2026-05-08 10:11 43.08075 -7.60889 34907 ft 429 kts 191°
2026-05-08 10:11 43.02328 -7.63076 34892 ft 428 kts 191°
2026-05-08 10:12 42.96630 -7.65240 34889 ft 428 kts 191°
2026-05-08 10:12 42.90891 -7.67415 34891 ft 428 kts 191°
2026-05-08 10:13 42.85158 -7.69584 34878 ft 427 kts 191°
2026-05-08 10:13 42.79426 -7.71749 34891 ft 427 kts 191°
2026-05-08 10:14 42.73730 -7.73895 34892 ft 428 kts 191°
2026-05-08 10:14 42.67993 -7.76053 34889 ft 428 kts 191°
2026-05-08 10:15 42.62236 -7.78214 34884 ft 430 kts 191°
2026-05-08 10:15 42.56467 -7.80376 34888 ft 430 kts 191°
2026-05-08 10:16 42.50702 -7.82533 34878 ft 430 kts 191°